• Join FlightAware (Why Join?)
  • Login
  • US Flag 
04:50PM EDT


 

Airport Tracker/Info


-or-


 

Live Flight TrackerFlight Track Log ✈ JZA8349 ✈ 27 de Aug de 2013 ✈ CYWG - CYQR

Flight Track Log - Related Links

Times and Time Zones

All times are in EDT time to prevent confusion due to time zone crossing. See the JZA8349 flight status page for this flight to view local times or setup timezone preferences in your user account.

Time Position Orientation Groundspeed Altitude Reporting Facility
EDT Latitude Longitude Course Direction KTS MPH feet Rate Location/Type
08:33PM 49.8833 -97.2333 278° West 20 23 700  Level Winnipeg Center
08:34PM 49.9167 -97.2833 316° Northwest 170 196 2,200 1,980 Climbing Winnipeg Center
08:35PM 49.9500 -97.3333 316° Northwest 190 219 4,700 2,340 Climbing Winnipeg Center
08:36PM 49.9833 -97.3833 316° Northwest 220 253 6,900 1,980 Climbing Winnipeg Center
08:37PM 49.9833 -97.5167 270° West 270 311 8,700 1,980 Climbing Winnipeg Center
08:38PM 50.0000 -97.6167 285° West 280 322 10,900 2,280 Climbing Winnipeg Center
08:39PM 50.0213 -98.2383 278° West  Level FlightAware Approximate
08:39PM 50.0167 -97.7500 281° West 280 322 13,300  Level Winnipeg Center
08:40PM 50.0359 -98.4120 278° West  Level FlightAware Approximate
08:40PM 50.0167 -97.8833 270° West 290 334 15,600  Level Winnipeg Center
08:41PM 50.0333 -97.9833 285° West 300 345 17,400 1,800 Climbing Winnipeg Center
08:42PM 50.0167 -98.1167 259° West 300 345 19,300 1,740 Climbing Winnipeg Center
08:43PM 50.0167 -98.2500 270° West 300 345 20,900 1,500 Climbing Winnipeg Center
08:44PM 50.0000 -98.4000 260° West 310 357 22,300 1,200 Climbing Winnipeg Center
08:45PM 50.0000 -98.5333 270° West 320 368 23,300 1,080 Climbing Winnipeg Center
08:46PM 49.9833 -98.6500 258° West 330 380 24,500 1,140 Climbing Winnipeg Center
08:47PM 49.9833 -98.8167 270° West 330 380 25,600 1,080 Climbing Winnipeg Center
08:48PM 49.9833 -98.9500 270° West 330 380 26,700 1,080 Climbing Winnipeg Center
08:49PM 49.9833 -99.1000 270° West 330 380 27,800 600 Climbing Winnipeg Center
08:50PM 50.0000 -99.2333 281° West 330 380 28,000 480 Climbing Winnipeg Center
08:51PM 50.0167 -99.3833 280° West 340 391 28,800 840 Climbing Winnipeg Center
08:52PM 50.0500 -99.5167 291° West 350 403 29,700 960 Climbing Winnipeg Center
08:53PM 50.0667 -99.6833 279° West 340 391 30,800 960 Climbing Winnipeg Center
08:54PM 50.0833 -99.8000 283° West 330 380 31,700 600 Climbing Winnipeg Center
08:55PM 50.1000 -99.9333 281° West 320 368 32,000 120 Climbing Winnipeg Center
08:56PM 50.1000 -100.1000 270° West 330 380 32,000  Level Winnipeg Center
08:57PM 50.1167 -100.2333 281° West 350 403 32,000  Level Winnipeg Center
08:58PM 50.1167 -100.3833 270° West 350 403 32,000  Level Winnipeg Center
08:59PM 50.1333 -100.5500 279° West 360 414 32,000  Level Winnipeg Center
09:00PM 50.1333 -100.7000 270° West 360 414 32,000  Level Winnipeg Center
09:01PM 50.1500 -100.8500 280° West 360 414 32,000  Level Winnipeg Center
09:02PM 50.1667 -101.0167 279° West 370 426 32,000  Level Winnipeg Center
09:03PM 50.1667 -101.1667 270° West 370 426 32,000  Level Winnipeg Center
09:04PM 50.1667 -101.3500 270° West 370 426 32,000  Level Winnipeg Center
09:05PM 50.1667 -101.5167 270° West 370 426 32,000  Level Winnipeg Center
09:06PM 50.1833 -101.6500 281° West 370 426 32,000  Level Winnipeg Center
09:07PM 50.2000 -101.8333 278° West 370 426 32,000  Level Winnipeg Center
09:08PM 50.2000 -101.9833 270° West 380 437 32,000  Level Winnipeg Center
09:09PM 50.2167 -102.1500 279° West 380 437 32,000  Level Winnipeg Center
09:10PM 50.2000 -102.3000 260° West 380 437 32,000  Level Winnipeg Center
09:11PM 50.2167 -102.4667 279° West 380 437 32,000  Level Winnipeg Center
09:12PM 50.2167 -102.6500 270° West 380 437 32,000  Level Winnipeg Center
09:13PM 50.2333 -102.8000 280° West 380 437 32,000 -1,500 Level Winnipeg Center
09:14PM 50.2333 -102.9833 270° West 390 449 29,100 -2,940 Descending Winnipeg Center
09:15PM 50.2500 -103.1500 279° West 390 449 26,200 -3,000 Descending Winnipeg Center
09:16PM 50.2500 -103.3333 270° West 380 437 23,200 -2,880 Descending Winnipeg Center
09:17PM 50.2667 -103.4667 281° West 360 414 20,500 -2,700 Descending Winnipeg Center
09:18PM 50.2500 -103.6167 260° West 350 403 17,800 -2,700 Descending Winnipeg Center
09:19PM 50.2667 -103.7833 279° West 340 391 15,200 -2,400 Descending Winnipeg Center
09:20PM 50.2667 -103.9167 270° West 320 368 13,000 -2,100 Descending Winnipeg Center
09:21PM 50.2833 -104.0500 281° West 310 357 11,100 -1,800 Descending Winnipeg Center
09:22PM 50.2667 -104.1667 257° West 270 311 9,500 -1,860 Descending Winnipeg Center
09:23PM 50.2833 -104.2833 283° West 260 299 7,400 -2,040 Descending Winnipeg Center
09:24PM 50.2833 -104.3833 270° West 260 299 5,500 -1,800 Descending Winnipeg Center
09:25PM 50.2833 -104.4833 270° West 250 288 3,900 -1,260 Descending Winnipeg Center
09:26PM 50.3333 -104.5833 308° West 220 253 3,000 -660 Descending Winnipeg Center
09:27PM 50.3833 -104.6167 337° Northwest 180 207 2,600 -600 Descending Winnipeg Center
09:28PM 50.4000 -104.6667 298° West 140 161 1,900 -360 Descending Winnipeg Center
09:29PM 50.4167 -104.7000 308° West 80 92 1,900  Level Winnipeg Center